Regional Weather Roundup
Issued by NWS

Home | Current Version | Previous Version | Text Only | Print | Product List | Glossary Off
Versions: 1 2 3 4 5 6 7 8 9 10 11 12 13 14 15 16 17 18 19 20 21 22 23 24 25 26 27 28 29 30 31 32 33 34 35 36 37 38 39 40 41 42 43 44 45 46 47 48 49 50

000
ASUS43 KMPX 210001
RWRMN
WEATHER ROUNDUP FOR MINNESOTA
NATIONAL WEATHER SERVICE TWIN CITIES/CHANHASSEN MN
700 PM CDT SAT SEP 20 2014


NOTE: "FAIR" INDICATES FEW OR NO CLOUDS BELOW 12,000 FEET WITH NO
SIGNIFICANT WEATHER AND/OR OBSTRUCTIONS TO VISIBILITY. N/A MEANS
CURRENT SKY AND/OR WEATHER CONDITIONS ARE NOT AVAILABLE.

MNZ060>063-068>070-210100-
   Twin Cities Metro

CITY           SKY/WX    TMP DP  RH WIND       PRES   REMARKS
TWIN CITIES    CLOUDY    60  57  89 NW7       29.78S
6HR MIN TEMP:  59; 6HR MAX TEMP:  77; 6HR PCP:  0.24;

ST PAUL        CLOUDY    60  57  89 NW5       29.76F
CRYSTAL        CLOUDY    61  56  83 W9        29.77S
LAKEVILLE      LGT RAIN  59  57  94 CALM      29.77F
EDEN PRAIRIE   CLOUDY    61  58  90 NW6       29.78F
6HR MIN TEMP:  59; 6HR MAX TEMP:  78; 6HR PCP:  0.33;

SOUTH ST PAUL  CLOUDY    61  57  88 CALM      29.75F
LAKE ELMO      CLOUDY    59  55  88 W6        29.76F
$$
MNZ001>005-007-008-013>017-022>024-027-028-210100-
   Northwest Minnesota

CITY           SKY/WX    TMP DP  RH WIND       PRES   REMARKS
BEMIDJI        RAIN      53  50  90 W21G29    29.76R
HALLOCK        RAIN      57  54  88 NW8       29.87R
ROSEAU         RAIN      52  46  82 N5        29.82R
WARROAD        DRIZZLE   52  46  82 NW8       29.82R
THIEF RVR FALL PTCLDY    57  50  77 NW14      29.84R
CROOKSTON      PTCLDY    61  52  72 N10G17    29.85R
FOSSTON        MOCLDY    55  48  76 NW16G22   29.84R
DETROIT LAKES  CLEAR     59  50  72 NW12      29.85S
MOORHEAD       CLEAR     64  54  68 NW6       29.85S
PARK RAPIDS    PTCLDY    57  49  74 NW17      29.80R
MAHNOMEN       MOCLDY    60  50  69 NW14G23   29.82S
$$
MNZ006-009>011-018-025>026-210100-
   North Central Minnesota

CITY           SKY/WX    TMP DP  RH WIND       PRES   REMARKS
BAUDETTE       LGT RAIN  53  50  89 NW9       29.79R
FLAG ISLAND    HVY RAIN  54  48  82 NW16      29.80R
INTL FALLS     CLOUDY    55  50  83 NW7       29.72R
6HR MIN TEMP:  55; 6HR MAX TEMP:  61;

WASKISH        LGT RAIN  52  50  93 NW13G21   29.78R
BIG FORK       HVY RAIN  54  54 100 CALM      29.70S
LONGVILLE      CLOUDY    55  52  88 W12G26    29.74S
GRAND RAPIDS   CLOUDY    55  52  88 W6        29.71S
CRANE LAKE     MOCLDY    52  52 100 CALM      29.73R
ORR            CLOUDY    55  48  76 CALM      29.67S
COOK           CLOUDY    57  52  82 CALM      29.70R
WALKER         CLOUDY    56  49  76 NW13G20   29.75S
$$
MNZ012-019>021-037-210100-
   Northeast Minnesota

CITY           SKY/WX    TMP DP  RH WIND       PRES   REMARKS
DULUTH         HVY RAIN  56  50  80 W17G29    29.69S
6HR MIN TEMP:  56; 6HR MAX TEMP:  70; 6HR PCP:  0.02;

ELY            MOCLDY    54  50  87 NE3       29.70S
HIBBING        LGT RAIN  55  53  93 W6        29.70R FOG
EVELETH        CLOUDY    57  52  82 CALM      29.69R
DULUTH HARBOR  LGT RAIN  64  54  68 W25G35    29.68S
TWO HARBORS    MOCLDY    55  48  76 CALM      29.67F
SILVER BAY     PTCLDY    54  54 100 CALM      29.67F
GRAND MARAIS     N/A     56  51  84 CALM      29.68R
G MARAIS ARPRT PTCLDY    54  48  82 CALM      29.72S
$$
MNZ029>031-032-039>041-046>048-054>057-064-210100-
   West Central Minnesota

CITY           SKY/WX    TMP DP  RH WIND       PRES   REMARKS
FERGUS FALLS   CLEAR     63  48  59 NW10      29.86S
WHEATON        PTCLDY    63  50  63 W10       29.90S
MORRIS         CLEAR     63  54  72 NW8       29.88
ALEXANDRIA     CLEAR     60  50  69 NW16G30   29.87R
ELBOW LAKE     FAIR      61  51  69 NW14      29.86S
WADENA         CLEAR     57  48  72 W10G24    29.82S
GLENWOOD       CLEAR     61  52  72 NW14      29.87R
APPLETON       CLEAR     64  54  68 NW7       29.89R
BENSON         CLEAR     63  54  72 N10       29.89R
ORTONVILLE     CLEAR     66  48  52 NW10G16   29.91R
MADISON        CLEAR     66  54  63 NW13G18   29.91R
WILLMAR        FAIR      63  54  72 NW17G23   29.88R
$$
MNZ033>034-036-042>043-049>051-058-059-210100-
   Central Minnesota

CITY           SKY/WX    TMP DP  RH WIND       PRES   REMARKS
ST CLOUD       PTCLDY    63  55  75 NW21G28   29.80R
6HR MIN TEMP:  61; 6HR MAX TEMP:  78; 6HR PCP:  0.18;

SAUK CENTRE    FAIR      60  50  70 NW17G23   29.84S
PAYNESVILLE    CLEAR     58  50  77 W14G22    29.85R
AITKIN         CLOUDY    57  54  88 W6        29.74F
PINE RIVER     MOCLDY    55  48  76 W9G18     29.81R
BRAINERD       MOCLDY    57  51  80 W13G24    29.79R
STAPLES        CLEAR     57  48  72 NW15G26   29.82R
LONG PRAIRIE   FAIR      59  46  63 W18G26    29.84R
LITTLE FALLS   PTCLDY    59  48  67 NW14G22   29.81R
LITCHFIELD     PTCLDY    63  59  88 NW15      29.84S
BUFFALO        MOCLDY    60  55  84 W9        29.81S
MAPLE LAKE     MOCLDY    60  57  89 W8        29.82R
$$
MNZ037-044-045-052-053-210100-
   East Central Minnesota

CITY           SKY/WX    TMP DP  RH WIND       PRES   REMARKS
PRINCETON      CLOUDY    61  57  88 W8        29.79R
MORA           CLOUDY    55  50  82 NW12G22   29.78R
CAMBRIDGE      CLOUDY    61  52  72 W12G22    29.76R
RUSH CITY      LGT RAIN  58  55  88 W7        29.76R
MOOSE LAKE     CLOUDY    55  52  88 W5        29.71F
HINCKLEY       MOCLDY    57  55  94 W7        29.75R
CLOQUET        RAIN      55  52  88 W8        29.71F
MCGREGOR       CLOUDY    55  54  94 W7        29.74F
$$
MNZ071>073-080-081-089-090-097-098-210100-
   Southwest Minnesota

CITY           SKY/WX    TMP DP  RH WIND       PRES   REMARKS
MONTEVIDEO     CLEAR     64  57  77 N14G20    29.91R
GRANITE FALLS  CLEAR     62  56  80 NW13      29.91R
CANBY          PTCLDY    65  52  63 NW13      29.93R
MARSHALL       PTCLDY    63  54  72 N12G18    29.91R
REDWOOD FALLS  PTCLDY    62  57  83 NW9       29.88R
OLIVIA         CLEAR     61  54  77 NW12G17   29.86R
PIPESTONE      PTCLDY    70  52  52 N17G23    29.94R
WINDOM         PTCLDY    63  55  77 NW24      29.90R
WORTHINGTON    CLEAR     66  48  52 N24G33    29.92R
JACKSON        PTCLDY    64  52  63 N16G24    29.90R
TRACY          PTCLDY    63  55  75 NW12G17   29.92R
SLAYTON        PTCLDY    65  50  60 N18G29    29.93R
$$
MNZ065>067-074>077-082>085-091>093-210100-
   South Central Minnesota

CITY           SKY/WX    TMP DP  RH WIND       PRES   REMARKS
MANKATO        CLOUDY    61  54  77 NW6       29.84R
NEW ULM        MOCLDY    61  59  94 NW15      29.87R
ST JAMES       CLOUDY    61  57  88 NW12      29.89R
FAIRMONT       CLOUDY    63  54  72 N13G20    29.86R
GLENCOE        CLOUDY    60  55  85 NW13G18   29.82R
FARIBAULT      LGT RAIN  63  57  82 CALM      29.81F
OWATONNA       LGT RAIN  61  57  88 N15       29.82R
WASECA         RAIN      55  52  88 N12G20    29.84F
ALBERT LEA     HVY RAIN  61  61 100 N18G35    29.82R
$$
MNZ078>079-086>088-094>096-210100-
   Southeast Minnesota

CITY           SKY/WX    TMP DP  RH WIND       PRES   REMARKS
ROCHESTER      TSTM      64  57  78 NW13G23   29.77S
6HR MIN TEMP:  64; 6HR MAX TEMP:  76; 6HR PCP:  0.17;

RED WING       RAIN      63  57  82 NW17G30   29.81R
STANTON        RAIN      62  57  86 CALM      29.76F
DODGE CENTER   TSTM      59  57  94 NW20G28   29.85R
WINONA         PTCLDY    73  55  53 N3        29.72F
AUSTIN         HVY RAIN  64  57  77 NW33G46   29.82R
PRESTON        MOCLDY    70  61  71 SE3       29.73F
$$
ABBREVIATIONS USED IN REMARKS
   TC - TEMPERATURES IN CELSIUS
  WCI - WIND CHILL INDEX
   HX - HEAT INDEX
  VSB - VISIBILITY
$$



USA.gov is the U.S. government's official web portal to all federal, state and local government web resources and services.